When you browse on this site, cookies collect data to enhance your experience and personalize the content and advertising you see.
Visit our Privacy Policy to learn more. By continuing to use the site, you agree to this use of cookies and data.
  • en Suisse
  • Liste des pays
  • À 7 jours
  • Température de l'eau
  • Carte météo
  • Widgets météo
  • user-avatar
    Se connecter

    Météo par heure à Dubinino

    Ce jour, 10 Avril, Vendredi

    Heure Température Précipitation Vent Pression Humidité
    00:00 -1°C° 0 mm 2 m/s 746 mmHg 81%
    01:00 -1°C° 0 mm 2 m/s 747 mmHg 80%
    02:00 -2°C° 0 mm 2 m/s 747 mmHg 80%
    03:00 -2°C° 0 mm 2 m/s 747 mmHg 79%
    04:00 -2°C° 0 mm 2 m/s 747 mmHg 77%
    05:00 -2°C° 0 mm 2 m/s 748 mmHg 76%
    06:00 -1°C° 0 mm 2 m/s 748 mmHg 75%
    07:00 +1°C° 0 mm 2 m/s 748 mmHg 68%
    08:00 +2°C° 0 mm 2 m/s 748 mmHg 60%
    09:00 +3°C° 0 mm 2 m/s 749 mmHg 53%
    10:00 +3°C° 0 mm 2 m/s 748 mmHg 54%
    11:00 +3°C° 0 mm 3 m/s 748 mmHg 54%
    12:00 +3°C° 0 mm 3 m/s 749 mmHg 55%
    13:00 +3°C° 0 mm 3 m/s 749 mmHg 53%
    14:00 +5°C° 0 mm 2 m/s 748 mmHg 52%
    15:00 +5°C° 0 mm 2 m/s 748 mmHg 51%
    16:00 +5°C° 0 mm 2 m/s 748 mmHg 54%
    17:00 +4°C° 0 mm 2 m/s 748 mmHg 57%
    18:00 +4°C° 0 mm 2 m/s 748 mmHg 62%
    19:00 +3°C° 0 mm 2 m/s 748 mmHg 66%
    20:00 +2°C° 0 mm 2 m/s 748 mmHg 70%
    21:00 +1°C° 0 mm 2 m/s 748 mmHg 73%
    22:00 +1°C° 0 mm 2 m/s 748 mmHg 73%
    23:00 -1°C° 0 mm 2 m/s 748 mmHg 74%

    Demain, 11 Avril, Samedi

    Heure Température Précipitation Vent Pression Humidité
    00:00 -1°C° 0 mm 2 m/s 748 mmHg 74%
    01:00 -1°C° 0 mm 2 m/s 748 mmHg 74%
    02:00 -2°C° 0 mm 2 m/s 748 mmHg 74%
    03:00 0°C° 0 mm 1 m/s 748 mmHg 75%
    04:00 0°C° 0 mm 1 m/s 748 mmHg 74%
    05:00 0°C° 0 mm 1 m/s 748 mmHg 73%
    06:00 -2°C° 0 mm 2 m/s 749 mmHg 72%
    07:00 +2°C° 0 mm 1 m/s 749 mmHg 66%
    08:00 +4°C° 0 mm 1 m/s 749 mmHg 60%
    09:00 +5°C° 0 mm 1 m/s 749 mmHg 54%
    10:00 +6°C° 0 mm 1 m/s 749 mmHg 53%
    11:00 +7°C° 0 mm 1 m/s 748 mmHg 53%
    12:00 +7°C° 0 mm 1 m/s 748 mmHg 52%
    13:00 +7°C° 0 mm 1 m/s 748 mmHg 52%
    14:00 +8°C° 0 mm 1 m/s 747 mmHg 52%
    15:00 +8°C° 0 mm 1 m/s 747 mmHg 52%
    16:00 +7°C° 0 mm 1 m/s 747 mmHg 55%
    17:00 +7°C° 0 mm 1 m/s 747 mmHg 57%
    18:00 +6°C° 0 mm 2 m/s 747 mmHg 59%
    19:00 +5°C° 0 mm 2 m/s 747 mmHg 64%
    20:00 +4°C° 0 mm 2 m/s 747 mmHg 69%
    21:00 +2°C° 0 mm 2 m/s 747 mmHg 74%
    22:00 +2°C° 0 mm 2 m/s 747 mmHg 75%
    23:00 +2°C° 0 mm 2 m/s 747 mmHg 76%

    Après-demain, 12 Avril, Dimanche

    Heure Température Précipitation Vent Pression Humidité
    00:00 +1°C° 0 mm 2 m/s 746 mmHg 77%
    01:00 +1°C° 0 mm 2 m/s 746 mmHg 77%
    02:00 +1°C° 0 mm 2 m/s 746 mmHg 77%
    03:00 -1°C° 0 mm 2 m/s 745 mmHg 76%
    04:00 -1°C° 0 mm 2 m/s 745 mmHg 74%
    05:00 -1°C° 0 mm 2 m/s 745 mmHg 71%
    06:00 +1°C° 0 mm 2 m/s 745 mmHg 69%
    07:00 +2°C° 0 mm 2 m/s 745 mmHg 64%
    08:00 +4°C° 0 mm 2 m/s 745 mmHg 59%
    09:00 +4°C° 0 mm 3 m/s 745 mmHg 53%
    10:00 +5°C° 0 mm 3 m/s 744 mmHg 49%
    11:00 +7°C° 0 mm 3 m/s 744 mmHg 46%
    12:00 +8°C° 0 mm 3 m/s 744 mmHg 42%
    13:00 +8°C° 0 mm 4 m/s 744 mmHg 42%
    14:00 +8°C° 0 mm 4 m/s 743 mmHg 42%
    15:00 +8°C° 0 mm 4 m/s 743 mmHg 41%
    16:00 +8°C° 0 mm 4 m/s 743 mmHg 47%
    17:00 +8°C° 0 mm 3 m/s 742 mmHg 53%
    18:00 +8°C° 0 mm 3 m/s 742 mmHg 58%
    19:00 +7°C° 0 mm 3 m/s 742 mmHg 65%
    20:00 +4°C° 0 mm 3 m/s 742 mmHg 71%
    21:00 +4°C° 0 mm 2 m/s 742 mmHg 77%
    22:00 +4°C° 0 mm 2 m/s 741 mmHg 79%
    23:00 +3°C° 0 mm 2 m/s 741 mmHg 81%

    13 Avril, Lundi

    Heure Température Précipitation Vent Pression Humidité
    00:00 +3°C° 0 mm 2 m/s 740 mmHg 83%
    01:00 +2°C° 0 mm 2 m/s 740 mmHg 84%
    02:00 +2°C° 0 mm 2 m/s 740 mmHg 85%
    03:00 +1°C° 0 mm 2 m/s 739 mmHg 86%
    04:00 +1°C° 0 mm 2 m/s 739 mmHg 86%
    05:00 +1°C° 0 mm 2 m/s 739 mmHg 86%
    06:00 +1°C° 0 mm 2 m/s 738 mmHg 87%
    07:00 +2°C° 0 mm 3 m/s 738 mmHg 79%
    08:00 +3°C° 0 mm 3 m/s 738 mmHg 71%
    09:00 +5°C° 0 mm 4 m/s 737 mmHg 64%
    10:00 +7°C° 0 mm 4 m/s 737 mmHg 57%
    11:00 +9°C° 0 mm 5 m/s 737 mmHg 50%
    12:00 +10°C° 0 mm 5 m/s 736 mmHg 44%
    13:00 +12°C° 0 mm 5 m/s 736 mmHg 43%
    14:00 +12°C° 0 mm 5 m/s 736 mmHg 43%
    15:00 +13°C° 0 mm 5 m/s 735 mmHg 42%
    16:00 +12°C° 0 mm 4 m/s 735 mmHg 46%
    17:00 +11°C° 0 mm 3 m/s 735 mmHg 50%
    18:00 +11°C° 0 mm 3 m/s 735 mmHg 53%
    19:00 +9°C° 0 mm 3 m/s 735 mmHg 60%
    20:00 +8°C° 0 mm 2 m/s 735 mmHg 66%
    21:00 +7°C° 0 mm 2 m/s 735 mmHg 72%
    22:00 +6°C° 0 mm 2 m/s 735 mmHg 73%
    23:00 +6°C° 0 mm 2 m/s 735 mmHg 75%

    14 Avril, Mardi

    Heure Température Précipitation Vent Pression Humidité
    00:00 +5°C° 0 mm 2 m/s 735 mmHg 76%
    01:00 +6°C° 0 mm 2 m/s 734 mmHg 78%
    02:00 +6°C° 0 mm 2 m/s 734 mmHg 80%
    03:00 +7°C° 0 mm 1 m/s 734 mmHg 83%
    04:00 +7°C° 0 mm 1 m/s 734 mmHg 84%
    05:00 +7°C° 0 mm 1 m/s 734 mmHg 86%
    06:00 +7°C° 0 mm 1 m/s 734 mmHg 87%
    07:00 +8°C° 0 mm 1 m/s 734 mmHg 84%
    08:00 +9°C° 0 mm 1 m/s 734 mmHg 80%
    09:00 +10°C° 0 mm 1 m/s 734 mmHg 77%
    10:00 +11°C° 0 mm 1 m/s 734 mmHg 72%
    11:00 +12°C° 0 mm 1 m/s 734 mmHg 67%
    12:00 +13°C° 0 mm 1 m/s 734 mmHg 61%
    13:00 +13°C° 0 mm 1 m/s 734 mmHg 60%
    14:00 +14°C° 0 mm 1 m/s 734 mmHg 59%
    15:00 +14°C° 0 mm 1 m/s 734 mmHg 58%
    16:00 +14°C° 0 mm 1 m/s 734 mmHg 61%
    17:00 +13°C° 0 mm 1 m/s 734 mmHg 64%
    18:00 +13°C° 0 mm 1 m/s 734 mmHg 67%
    19:00 +12°C° 0 mm 1 m/s 734 mmHg 71%
    20:00 +11°C° 0 mm 1 m/s 735 mmHg 76%
    21:00 +10°C° 0 mm 1 m/s 735 mmHg 80%
    22:00 +10°C° 0 mm 1 m/s 735 mmHg 82%
    23:00 +9°C° 0 mm 1 m/s 735 mmHg 84%

    15 Avril, Mercredi

    Heure Température Précipitation Vent Pression Humidité
    00:00 +8°C° 0 mm 2 m/s 735 mmHg 86%
    01:00 +7°C° 0 mm 2 m/s 735 mmHg 87%
    02:00 +7°C° 0 mm 2 m/s 735 mmHg 87%
    03:00 +7°C° 0 mm 2 m/s 735 mmHg 88%
    04:00 +7°C° 0 mm 2 m/s 735 mmHg 88%
    05:00 +7°C° 0 mm 2 m/s 735 mmHg 88%
    06:00 +7°C° 0 mm 2 m/s 735 mmHg 88%
    07:00 +9°C° 0 mm 2 m/s 735 mmHg 82%
    08:00 +10°C° 0 mm 2 m/s 735 mmHg 77%
    09:00 +13°C° 0 mm 2 m/s 735 mmHg 71%
    10:00 +14°C° 0.1 mm 1 m/s 734 mmHg 66%
    11:00 +15°C° 0.1 mm 1 m/s 734 mmHg 61%
    12:00 +16°C° 0.1 mm 1 m/s 733 mmHg 56%
    13:00 +16°C° 0 mm 2 m/s 733 mmHg 52%
    14:00 +17°C° 0 mm 3 m/s 732 mmHg 48%
    15:00 +18°C° 0 mm 4 m/s 731 mmHg 44%
    16:00 +15°C° 0.5 mm 5 m/s 731 mmHg 54%
    17:00 +13°C° 0.5 mm 6 m/s 731 mmHg 63%
    18:00 +11°C° 0.5 mm 6 m/s 730 mmHg 73%
    19:00 +9°C° 0.4 mm 6 m/s 731 mmHg 75%
    20:00 +8°C° 0.4 mm 6 m/s 731 mmHg 77%
    21:00 +6°C° 0.4 mm 5 m/s 731 mmHg 80%
    22:00 +6°C° 0.2 mm 5 m/s 732 mmHg 80%
    23:00 +4°C° 0.2 mm 6 m/s 733 mmHg 81%
    Voir plus